Погода в Красноборске

Россия / Архангельская область     61°33′34″N   45°56′38″E
темп.,
°C
ветер,
м/с
пор.,
м/с
влажн.,
%
обл.,
%
осадки,
мм/ч
давл.,
гПа
погр.,
м
21 июня, пн
пн2100:00+14юв278653 0.0 1017177
03:00+13ююв119572 0.0 101723
06:00+22з26650 0.0 1016233
09:00+26з354984 0.0 1016786
12:00+31зсз463069 0.0 10162600
15:00+31сз3529100 0.0 10162639
18:00+30зсз2440100 0.0 1016915
21:00+22ююз016336 0.0 101711
22 июня, вт
вт2200:00+20юз226373 0.0 101716
03:00+19юз22685 0.0 101815
06:00+24з26570 0.0 1018248
09:00+30з35355 0.0 10171082
12:00+33зсз352686 0.0 10172941
15:00+34зсз352495 0.0 10163409
18:00+30з2440100 0.0 1015149
21:00+24з3957100 0.1 1017279
23 июня, ср
ср2300:00+19юз118439 0.3 101811
03:00+18зюз268636 0.4 1018109
06:00+22з127578 0.2 1019172
09:00+29зюз23476 0.2 1018747
12:00+33з23325 0.0 10172549
15:00+33з233092 0.0 10162599
18:00+29з23435 0.0 1015415
21:00+26ююз115731 0.1 101528
24 июня, чт
чт2400:00+19ююз359075 3.1 101680
03:00+19зюз411893 3.1 1015219
06:00+23з25725 0.0 1015248
09:00+29з34516 0.0 1015948
12:00+32зсз453851 0.0 10142800
15:00+28ссз135315 0.1 1014152
18:00+31ссз24435 0.0 1013912
21:00+24зсз00709 0.4 101312
25 июня, пт
пт2500:00+20зюз229030 1.1 101338
03:00+19с119393 1.3 101221
06:00+22сз118433 0.0 1011184
09:00+27зюз355754 0.0 1010973
12:00+29зюз594218 0.0 10102248
15:00+25зсз7962100 0.2 10101434
18:00+19зсз6116967 0.1 1012878
21:00+14сз51085100 0.1 1013689